Time,TemperatureF,DewpointF,PressureIn,WindDirection,WindDirectionDegrees,WindSpeedMPH,WindSpeedGustMPH,Humidity,HourlyPrecipIn,Conditions,Clouds,dailyrainin,SoftwareType,DateUTC
2013-02-28 00:00:00,35.8,31.7,29.81,NW,311,3.0,3.0,85,0.00,,,0.03,Wunderground v.1.15,2013-02-28 05:00:00,
2013-02-28 00:05:00,35.8,31.7,29.81,NW,316,3.0,4.0,85,0.00,,,0.00,Wunderground v.1.15,2013-02-28 05:05:00,
2013-02-28 00:10:00,35.7,31.6,29.81,NW,306,4.0,4.0,85,0.00,,,0.00,Wunderground v.1.15,2013-02-28 05:10:00,
2013-02-28 00:15:00,35.7,31.3,29.81,NW,316,4.0,4.0,84,0.00,,,0.00,Wunderground v.1.15,2013-02-28 05:15:00,
2013-02-28 00:25:00,35.7,30.7,29.81,NW,306,5.0,12.0,82,0.00,,,0.00,Wunderground v.1.15,2013-02-28 05:25:00,
2013-02-28 00:30:00,35.7,30.4,29.81,NW,321,6.0,6.0,81,0.00,,,0.00,Wunderground v.1.15,2013-02-28 05:30:00,
2013-02-28 00:35:00,35.5,30.2,29.80,WNW,302,5.0,6.0,81,0.00,,,0.00,Wunderground v.1.15,2013-02-28 05:35:00,
2013-02-28 00:40:00,35.5,30.2,29.80,NW,315,6.0,7.0,81,0.00,,,0.00,Wunderground v.1.15,2013-02-28 05:40:00,
2013-02-28 00:45:00,35.6,30.0,29.80,NW,326,6.0,7.0,80,0.00,,,0.00,Wunderground v.1.15,2013-02-28 05:45:00,
2013-02-28 00:50:00,35.6,30.0,29.80,NW,314,6.0,6.0,80,0.00,,,0.00,Wunderground v.1.15,2013-02-28 05:50:00,
2013-02-28 00:55:00,35.5,30.2,29.80,NW,311,7.0,7.0,81,0.00,,,0.00,Wunderground v.1.15,2013-02-28 05:55:00,
2013-02-28 01:00:00,35.4,30.5,29.80,WNW,288,7.0,7.0,82,0.00,,,0.00,Wunderground v.1.15,2013-02-28 06:00:00,
2013-02-28 01:10:00,35.2,30.3,29.80,WNW,297,7.0,7.0,82,0.00,,,0.00,Wunderground v.1.15,2013-02-28 06:10:00,
2013-02-28 01:20:00,35.0,30.4,29.80,WNW,287,6.0,6.0,83,0.00,,,0.00,Wunderground v.1.15,2013-02-28 06:20:00,
2013-02-28 01:25:00,34.9,30.3,29.80,WNW,286,6.0,6.0,83,0.00,,,0.00,Wunderground v.1.15,2013-02-28 06:25:00,
2013-02-28 01:30:00,35.0,30.4,29.80,WNW,286,8.0,9.0,83,0.00,,,0.00,Wunderground v.1.15,2013-02-28 06:30:00,
2013-02-28 01:40:00,34.7,30.4,29.80,West,275,5.0,5.0,84,0.00,,,0.00,Wunderground v.1.15,2013-02-28 06:40:00,
2013-02-28 01:45:00,34.7,30.4,29.80,WNW,294,6.0,6.0,84,0.00,,,0.00,Wunderground v.1.15,2013-02-28 06:45:00,
2013-02-28 01:55:00,34.5,30.5,29.80,West,277,5.0,5.0,85,0.00,,,0.00,Wunderground v.1.15,2013-02-28 06:55:00,
2013-02-28 02:00:00,34.4,30.4,29.80,NW,305,4.0,4.0,85,0.00,,,0.00,Wunderground v.1.15,2013-02-28 07:00:00,
2013-02-28 02:05:00,34.3,30.5,29.80,WNW,300,4.0,4.0,86,0.00,,,0.00,Wunderground v.1.15,2013-02-28 07:05:00,
2013-02-28 02:10:00,34.3,30.3,29.80,WNW,283,4.0,7.0,85,0.00,,,0.00,Wunderground v.1.15,2013-02-28 07:10:00,
2013-02-28 02:15:00,34.3,30.3,29.80,WNW,302,5.0,7.0,85,0.00,,,0.00,Wunderground v.1.15,2013-02-28 07:15:00,
2013-02-28 02:25:00,34.2,30.2,29.80,NNW,330,3.0,4.0,85,0.00,,,0.00,Wunderground v.1.15,2013-02-28 07:25:00,
2013-02-28 02:30:00,34.2,29.9,29.80,NW,316,2.0,2.0,84,0.00,,,0.00,Wunderground v.1.15,2013-02-28 07:30:00,
2013-02-28 02:40:00,34.1,30.1,29.80,WNW,286,1.0,1.0,85,0.00,,,0.00,Wunderground v.1.15,2013-02-28 07:40:00,
2013-02-28 02:45:00,34.1,29.8,29.80,NW,323,1.0,1.0,84,0.00,,,0.00,Wunderground v.1.15,2013-02-28 07:45:00,
2013-02-28 02:55:00,34.3,29.4,29.80,NW,317,2.0,2.0,82,0.00,,,0.00,Wunderground v.1.15,2013-02-28 07:55:00,
2013-02-28 03:00:00,34.3,29.1,29.79,WNW,298,2.0,5.0,81,0.00,,,0.00,Wunderground v.1.15,2013-02-28 08:00:00,
2013-02-28 03:05:00,34.4,29.2,29.79,NW,313,3.0,5.0,81,0.00,,,0.00,Wunderground v.1.15,2013-02-28 08:05:00,
2013-02-28 03:10:00,34.3,29.4,29.79,WNW,292,3.0,3.0,82,0.00,,,0.00,Wunderground v.1.15,2013-02-28 08:10:00,
2013-02-28 03:15:00,34.3,29.4,29.79,NW,315,3.0,5.0,82,0.00,,,0.00,Wunderground v.1.15,2013-02-28 08:15:00,
2013-02-28 03:25:00,34.3,29.4,29.78,NW,325,2.0,3.0,82,0.00,,,0.00,Wunderground v.1.15,2013-02-28 08:25:00,
2013-02-28 03:30:00,34.3,29.1,29.78,NW,317,2.0,2.0,81,0.00,,,0.00,Wunderground v.1.15,2013-02-28 08:30:00,
2013-02-28 03:35:00,34.3,29.1,29.78,NNW,336,2.0,2.0,81,0.00,,,0.00,Wunderground v.1.15,2013-02-28 08:35:00,
2013-02-28 03:40:00,34.3,29.1,29.78,NW,325,1.0,1.0,81,0.00,,,0.00,Wunderground v.1.15,2013-02-28 08:40:00,
2013-02-28 03:45:00,34.3,29.1,29.78,NW,325,1.0,1.0,81,0.00,,,0.00,Wunderground v.1.15,2013-02-28 08:45:00,
2013-02-28 03:55:00,34.2,29.3,29.78,NW,322,2.0,6.0,82,0.00,,,0.00,Wunderground v.1.15,2013-02-28 08:55:00,
2013-02-28 04:00:00,34.1,29.2,29.78,WNW,294,2.0,5.0,82,0.00,,,0.00,Wunderground v.1.15,2013-02-28 09:00:00,
2013-02-28 04:10:00,33.7,29.7,29.78,NNW,343,3.0,6.0,85,0.00,,,0.00,Wunderground v.1.15,2013-02-28 09:10:00,
2013-02-28 04:15:00,33.2,29.8,29.78,NW,321,4.0,6.0,87,0.00,,,0.00,Wunderground v.1.15,2013-02-28 09:15:00,
2013-02-28 04:25:00,32.4,29.5,29.79,NW,319,4.0,8.0,89,0.00,,,0.00,Wunderground v.1.15,2013-02-28 09:25:00,
2013-02-28 04:30:00,32.3,29.7,29.78,West,279,3.0,5.0,90,0.00,,,0.00,Wunderground v.1.15,2013-02-28 09:30:00,
2013-02-28 04:40:00,32.5,29.6,29.78,North,360,3.0,3.0,89,0.00,,,0.00,Wunderground v.1.15,2013-02-28 09:40:00,
2013-02-28 04:45:00,32.8,29.6,29.78,NNW,331,4.0,4.0,88,0.00,,,0.00,Wunderground v.1.15,2013-02-28 09:45:00,
2013-02-28 04:55:00,33.2,29.5,29.79,WNW,291,5.0,6.0,86,0.00,,,0.00,Wunderground v.1.15,2013-02-28 09:55:00,
2013-02-28 05:00:00,33.4,29.7,29.78,WNW,300,6.0,6.0,86,0.00,,,0.00,Wunderground v.1.15,2013-02-28 10:00:00,
2013-02-28 05:10:00,33.4,29.4,29.79,WNW,303,5.0,8.0,85,0.00,,,0.00,Wunderground v.1.15,2013-02-28 10:10:00,
2013-02-28 05:15:00,33.4,29.1,29.79,WNW,292,5.0,8.0,84,0.00,,,0.00,Wunderground v.1.15,2013-02-28 10:15:00,
2013-02-28 05:25:00,33.4,29.4,29.79,WNW,294,3.0,5.0,85,0.00,,,0.00,Wunderground v.1.15,2013-02-28 10:25:00,
2013-02-28 05:30:00,33.4,29.1,29.79,NW,323,4.0,4.0,84,0.00,,,0.00,Wunderground v.1.15,2013-02-28 10:30:00,
2013-02-28 05:35:00,33.3,29.3,29.79,WNW,302,4.0,4.0,85,0.00,,,0.00,Wunderground v.1.15,2013-02-28 10:35:00,
2013-02-28 05:40:00,33.2,29.2,29.79,NW,312,4.0,4.0,85,0.00,,,0.00,Wunderground v.1.15,2013-02-28 10:40:00,
2013-02-28 05:50:00,33.1,29.4,29.79,NW,315,3.0,3.0,86,0.00,,,0.00,Wunderground v.1.15,2013-02-28 10:50:00,
2013-02-28 05:55:00,33.1,29.1,29.79,NW,309,3.0,3.0,85,0.00,,,0.00,Wunderground v.1.15,2013-02-28 10:55:00,
2013-02-28 06:00:00,33.2,29.2,29.79,WNW,303,5.0,5.0,85,0.00,,,0.00,Wunderground v.1.15,2013-02-28 11:00:00,
2013-02-28 06:10:00,33.2,29.2,29.80,WNW,298,5.0,6.0,85,0.00,,,0.00,Wunderground v.1.15,2013-02-28 11:10:00,
2013-02-28 06:15:00,33.0,29.3,29.80,West,275,4.0,6.0,86,0.00,,,0.00,Wunderground v.1.15,2013-02-28 11:15:00,
2013-02-28 06:20:00,32.9,29.2,29.80,NW,307,4.0,8.0,86,0.00,,,0.00,Wunderground v.1.15,2013-02-28 11:20:00,
2013-02-28 06:25:00,32.8,28.8,29.81,WNW,290,6.0,8.0,85,0.00,,,0.00,Wunderground v.1.15,2013-02-28 11:25:00,
2013-02-28 06:35:00,32.6,28.6,29.81,WNW,300,6.0,8.0,85,0.00,,,0.00,Wunderground v.1.15,2013-02-28 11:35:00,
2013-02-28 06:45:00,32.2,28.2,29.81,WNW,298,8.0,9.0,85,0.00,,,0.00,Wunderground v.1.15,2013-02-28 11:45:00,
2013-02-28 06:55:00,32.1,28.1,29.82,West,280,6.0,9.0,85,0.00,,,0.00,Wunderground v.1.15,2013-02-28 11:55:00,
2013-02-28 07:00:00,32.1,27.8,29.82,West,269,6.0,10.0,84,0.00,,,0.00,Wunderground v.1.15,2013-02-28 12:00:00,
2013-02-28 07:10:00,32.2,27.3,29.81,WNW,294,7.0,7.0,82,0.00,,,0.00,Wunderground v.1.15,2013-02-28 12:10:00,
2013-02-28 07:15:00,32.1,27.5,29.82,West,274,6.0,7.0,83,0.00,,,0.00,Wunderground v.1.15,2013-02-28 12:15:00,
2013-02-28 07:20:00,32.0,27.4,29.82,NW,324,5.0,5.0,83,0.00,,,0.00,Wunderground v.1.15,2013-02-28 12:20:00,
2013-02-28 07:25:00,31.9,27.6,29.82,NNW,332,5.0,5.0,84,0.00,,,0.00,Wunderground v.1.15,2013-02-28 12:25:00,
2013-02-28 07:30:00,31.9,27.6,29.82,NW,305,5.0,5.0,84,0.00,,,0.00,Wunderground v.1.15,2013-02-28 12:30:00,
2013-02-28 07:40:00,31.8,27.5,29.82,West,281,6.0,13.0,84,0.00,,,0.00,Wunderground v.1.15,2013-02-28 12:40:00,
2013-02-28 07:45:00,31.8,27.5,29.82,WNW,299,6.0,13.0,84,0.00,,,0.00,Wunderground v.1.15,2013-02-28 12:45:00,
2013-02-28 07:55:00,31.5,27.5,29.83,West,265,7.0,11.0,85,0.00,,,0.00,Wunderground v.1.15,2013-02-28 12:55:00,
2013-02-28 08:00:00,31.4,27.7,29.83,West,273,6.0,7.0,86,0.00,,,0.00,Wunderground v.1.15,2013-02-28 13:00:00,
2013-02-28 08:10:00,31.4,27.4,29.83,NNW,345,6.0,6.0,85,0.00,,,0.00,Wunderground v.1.15,2013-02-28 13:10:00,
2013-02-28 08:15:00,31.4,27.1,29.84,West,281,7.0,8.0,84,0.00,,,0.00,Wunderground v.1.15,2013-02-28 13:15:00,
2013-02-28 08:20:00,31.5,26.9,29.83,NW,311,7.0,8.0,83,0.00,,,0.00,Wunderground v.1.15,2013-02-28 13:20:00,
2013-02-28 08:25:00,31.6,27.0,29.84,NW,311,7.0,8.0,83,0.00,,,0.00,Wunderground v.1.15,2013-02-28 13:25:00,
2013-02-28 08:30:00,31.7,27.1,29.84,WNW,295,6.0,6.0,83,0.00,,,0.00,Wunderground v.1.15,2013-02-28 13:30:00,
2013-02-28 08:40:00,31.8,26.9,29.84,NW,320,6.0,6.0,82,0.00,,,0.00,Wunderground v.1.15,2013-02-28 13:40:00,
2013-02-28 08:45:00,31.9,27.0,29.84,WNW,300,6.0,6.0,82,0.00,,,0.00,Wunderground v.1.15,2013-02-28 13:45:00,
2013-02-28 08:50:00,31.9,27.0,29.84,West,273,5.0,8.0,82,0.00,,,0.00,Wunderground v.1.15,2013-02-28 13:50:00,
2013-02-28 08:55:00,32.0,27.1,29.84,WNW,284,6.0,8.0,82,0.00,,,0.00,Wunderground v.1.15,2013-02-28 13:55:00,
2013-02-28 09:00:00,31.9,27.3,29.84,NW,304,6.0,6.0,83,0.00,,,0.00,Wunderground v.1.15,2013-02-28 14:00:00,
2013-02-28 09:10:00,32.2,27.3,29.84,WNW,290,7.0,11.0,82,0.00,,,0.00,Wunderground v.1.15,2013-02-28 14:10:00,
2013-02-28 09:15:00,32.3,26.8,29.84,NW,313,7.0,11.0,80,0.00,,,0.00,Wunderground v.1.15,2013-02-28 14:15:00,
2013-02-28 09:25:00,33.2,26.8,29.84,NNW,327,6.0,7.0,77,0.00,,,0.00,Wunderground v.1.15,2013-02-28 14:25:00,
2013-02-28 09:30:00,33.5,26.7,29.84,NW,315,7.0,7.0,76,0.00,,,0.00,Wunderground v.1.15,2013-02-28 14:30:00,
2013-02-28 09:40:00,33.7,27.3,29.85,WNW,300,7.0,7.0,77,0.00,,,0.00,Wunderground v.1.15,2013-02-28 14:40:00,
2013-02-28 09:45:00,34.0,26.3,29.85,WNW,295,7.0,10.0,73,0.00,,,0.00,Wunderground v.1.15,2013-02-28 14:45:00,
2013-02-28 09:55:00,33.6,25.9,29.85,NW,304,8.0,12.0,73,0.00,,,0.00,Wunderground v.1.15,2013-02-28 14:55:00,
2013-02-28 10:00:00,33.5,26.1,29.85,NW,322,8.0,8.0,74,0.00,,,0.00,Wunderground v.1.15,2013-02-28 15:00:00,
2013-02-28 10:10:00,33.8,26.1,29.85,NW,304,8.0,8.0,73,0.00,,,0.00,Wunderground v.1.15,2013-02-28 15:10:00,
2013-02-28 10:15:00,33.6,26.2,29.85,NNW,336,9.0,9.0,74,0.00,,,0.00,Wunderground v.1.15,2013-02-28 15:15:00,
2013-02-28 10:25:00,33.5,25.8,29.86,NW,304,7.0,9.0,73,0.00,,,0.00,Wunderground v.1.15,2013-02-28 15:25:00,
2013-02-28 10:30:00,33.6,25.5,29.85,WNW,286,7.0,7.0,72,0.00,,,0.00,Wunderground v.1.15,2013-02-28 15:30:00,
2013-02-28 10:35:00,33.7,25.3,29.86,WNW,292,6.0,8.0,71,0.00,,,0.00,Wunderground v.1.15,2013-02-28 15:35:00,
2013-02-28 10:40:00,33.9,25.5,29.86,NW,324,6.0,6.0,71,0.00,,,0.00,Wunderground v.1.15,2013-02-28 15:40:00,
2013-02-28 10:45:00,34.1,25.7,29.86,WNW,286,6.0,10.0,71,0.00,,,0.00,Wunderground v.1.15,2013-02-28 15:45:00,
2013-02-28 10:55:00,33.9,24.8,29.87,NNW,338,8.0,11.0,69,0.00,,,0.00,Wunderground v.1.15,2013-02-28 15:55:00,
2013-02-28 11:00:00,33.9,24.8,29.87,NNW,333,8.0,8.0,69,0.00,,,0.00,Wunderground v.1.15,2013-02-28 16:00:00,
2013-02-28 11:10:00,33.8,24.4,29.87,WNW,283,9.0,9.0,68,0.00,,,0.00,Wunderground v.1.15,2013-02-28 16:10:00,
2013-02-28 11:15:00,33.9,24.8,29.87,WNW,284,9.0,10.0,69,0.00,,,0.00,Wunderground v.1.15,2013-02-28 16:15:00,
2013-02-28 11:20:00,33.9,24.1,29.87,WNW,292,8.0,8.0,67,0.00,,,0.00,Wunderground v.1.15,2013-02-28 16:20:00,
2013-02-28 11:25:00,34.1,25.0,29.88,NNW,344,8.0,9.0,69,0.00,,,0.00,Wunderground v.1.15,2013-02-28 16:25:00,
2013-02-28 11:30:00,34.3,24.5,29.88,North,9,8.0,8.0,67,0.00,,,0.00,Wunderground v.1.15,2013-02-28 16:30:00,
2013-02-28 11:40:00,34.2,24.4,29.88,NW,324,7.0,7.0,67,0.00,,,0.00,Wunderground v.1.15,2013-02-28 16:40:00,
2013-02-28 11:45:00,34.6,25.5,29.88,NNW,348,6.0,7.0,69,0.00,,,0.00,Wunderground v.1.15,2013-02-28 16:45:00,
2013-02-28 11:55:00,34.6,25.1,29.88,WNW,296,5.0,6.0,68,0.00,,,0.00,Wunderground v.1.15,2013-02-28 16:55:00,
2013-02-28 12:00:00,34.4,24.6,29.88,NW,325,6.0,6.0,67,0.00,,,0.00,Wunderground v.1.15,2013-02-28 17:00:00,
2013-02-28 12:05:00,34.5,25.0,29.88,NNW,336,6.0,6.0,68,0.00,,,0.00,Wunderground v.1.15,2013-02-28 17:05:00,
2013-02-28 12:10:00,34.7,25.6,29.88,NNW,332,5.0,6.0,69,0.00,,,0.00,Wunderground v.1.15,2013-02-28 17:10:00,
2013-02-28 12:15:00,34.7,25.2,29.88,NW,313,5.0,6.0,68,0.00,,,0.01,Wunderground v.1.15,2013-02-28 17:15:00,
2013-02-28 12:25:00,34.8,25.0,29.88,WNW,282,6.0,11.0,67,0.00,,,0.01,Wunderground v.1.15,2013-02-28 17:25:00,
2013-02-28 12:30:00,34.7,25.2,29.87,WNW,284,7.0,7.0,68,0.00,,,0.01,Wunderground v.1.15,2013-02-28 17:30:00,
2013-02-28 12:40:00,35.1,25.6,29.87,NW,305,4.0,4.0,68,0.00,,,0.01,Wunderground v.1.15,2013-02-28 17:40:00,
2013-02-28 12:45:00,34.9,25.0,29.87,NW,305,5.0,6.0,67,0.00,,,0.01,Wunderground v.1.15,2013-02-28 17:45:00,
2013-02-28 12:50:00,34.7,25.6,29.87,NNW,334,6.0,7.0,69,0.00,,,0.01,Wunderground v.1.15,2013-02-28 17:50:00,
2013-02-28 12:55:00,34.5,24.3,29.87,NW,322,7.0,8.0,66,0.00,,,0.01,Wunderground v.1.15,2013-02-28 17:55:00,
2013-02-28 13:00:00,34.5,24.7,29.87,NW,312,7.0,9.0,67,0.00,,,0.01,Wunderground v.1.15,2013-02-28 18:00:00,
2013-02-28 13:10:00,34.6,24.8,29.87,NW,309,7.0,7.0,67,0.00,,,0.02,Wunderground v.1.15,2013-02-28 18:10:00,
2013-02-28 13:15:00,34.6,25.1,29.87,WNW,288,7.0,7.0,68,0.00,,,0.02,Wunderground v.1.15,2013-02-28 18:15:00,
2013-02-28 13:20:00,34.8,25.3,29.87,West,279,6.0,9.0,68,0.00,,,0.02,Wunderground v.1.15,2013-02-28 18:20:00,
2013-02-28 13:30:00,34.9,25.8,29.87,WNW,293,7.0,13.0,69,0.00,,,0.02,Wunderground v.1.15,2013-02-28 18:30:00,
2013-02-28 13:40:00,35.0,25.9,29.86,WNW,286,6.0,6.0,69,0.00,,,0.02,Wunderground v.1.15,2013-02-28 18:40:00,
2013-02-28 13:45:00,35.1,25.9,29.86,West,271,6.0,11.0,69,0.00,,,0.02,Wunderground v.1.15,2013-02-28 18:45:00,
2013-02-28 13:55:00,34.9,26.1,29.86,WNW,300,7.0,8.0,70,0.00,,,0.02,Wunderground v.1.15,2013-02-28 18:55:00,
2013-02-28 14:05:00,35.1,25.9,29.86,NW,306,5.0,7.0,69,0.00,,,0.02,Wunderground v.1.15,2013-02-28 19:05:00,
2013-02-28 14:10:00,35.3,26.5,29.86,WNW,285,4.0,11.0,70,0.00,,,0.02,Wunderground v.1.15,2013-02-28 19:10:00,
2013-02-28 14:15:00,35.2,26.4,29.86,West,260,4.0,11.0,70,0.00,,,0.02,Wunderground v.1.15,2013-02-28 19:15:00,
2013-02-28 14:25:00,35.5,26.3,29.87,NW,314,3.0,4.0,69,0.00,,,0.02,Wunderground v.1.15,2013-02-28 19:25:00,
2013-02-28 14:30:00,35.5,26.3,29.87,NNW,339,4.0,7.0,69,0.00,,,0.02,Wunderground v.1.15,2013-02-28 19:30:00,
2013-02-28 14:40:00,35.3,26.8,29.87,NW,319,5.0,5.0,71,0.00,,,0.02,Wunderground v.1.15,2013-02-28 19:40:00,
2013-02-28 14:45:00,35.1,26.3,29.88,West,272,4.0,5.0,70,0.00,,,0.02,Wunderground v.1.15,2013-02-28 19:45:00,
2013-02-28 14:55:00,35.0,26.9,29.88,NW,309,3.0,4.0,72,0.00,,,0.02,Wunderground v.1.15,2013-02-28 19:55:00,
2013-02-28 15:00:00,35.0,26.5,29.88,NW,320,3.0,3.0,71,0.00,,,0.02,Wunderground v.1.15,2013-02-28 20:00:00,
2013-02-28 15:05:00,35.0,26.9,29.88,NW,316,3.0,3.0,72,0.00,,,0.02,Wunderground v.1.15,2013-02-28 20:05:00,
2013-02-28 15:10:00,35.1,27.0,29.88,NW,307,3.0,3.0,72,0.00,,,0.02,Wunderground v.1.15,2013-02-28 20:10:00,
2013-02-28 15:20:00,34.9,26.4,29.88,WNW,282,4.0,4.0,71,0.00,,,0.02,Wunderground v.1.15,2013-02-28 20:20:00,
2013-02-28 15:25:00,34.9,26.8,29.88,WNW,301,5.0,6.0,72,0.00,,,0.02,Wunderground v.1.15,2013-02-28 20:25:00,
2013-02-28 15:30:00,35.0,27.2,29.88,NNW,340,4.0,4.0,73,0.00,,,0.02,Wunderground v.1.15,2013-02-28 20:30:00,
2013-02-28 15:40:00,35.0,26.9,29.89,SW,214,4.0,5.0,72,0.00,,,0.02,Wunderground v.1.15,2013-02-28 20:40:00,
2013-02-28 15:45:00,35.0,27.5,29.89,WNW,300,4.0,5.0,74,0.00,,,0.02,Wunderground v.1.15,2013-02-28 20:45:00,
2013-02-28 15:55:00,34.9,27.1,29.89,West,264,4.0,4.0,73,0.00,,,0.02,Wunderground v.1.15,2013-02-28 20:55:00,
2013-02-28 16:00:00,34.9,27.1,29.89,WNW,282,4.0,4.0,73,0.00,,,0.02,Wunderground v.1.15,2013-02-28 21:00:00,
2013-02-28 16:05:00,34.9,27.1,29.89,NW,317,3.0,4.0,73,0.00,,,0.02,Wunderground v.1.15,2013-02-28 21:05:00,
2013-02-28 16:10:00,34.9,27.1,29.89,NW,307,3.0,6.0,73,0.00,,,0.02,Wunderground v.1.15,2013-02-28 21:10:00,
2013-02-28 16:15:00,34.8,27.0,29.89,NW,319,4.0,6.0,73,0.00,,,0.02,Wunderground v.1.15,2013-02-28 21:15:00,
2013-02-28 16:25:00,34.8,27.4,29.90,WNW,300,4.0,5.0,74,0.00,,,0.02,Wunderground v.1.15,2013-02-28 21:25:00,
2013-02-28 16:30:00,34.7,27.3,29.90,West,269,3.0,3.0,74,0.00,,,0.02,Wunderground v.1.15,2013-02-28 21:30:00,
2013-02-28 16:35:00,34.7,27.3,29.90,NNW,327,3.0,3.0,74,0.00,,,0.02,Wunderground v.1.15,2013-02-28 21:35:00,
2013-02-28 16:40:00,34.6,27.2,29.90,NW,326,4.0,6.0,74,0.00,,,0.02,Wunderground v.1.15,2013-02-28 21:40:00,
2013-02-28 16:50:00,34.5,27.1,29.91,WNW,284,3.0,4.0,74,0.00,,,0.02,Wunderground v.1.15,2013-02-28 21:50:00,
2013-02-28 16:55:00,34.4,27.3,29.91,NNW,341,4.0,4.0,75,0.00,,,0.02,Wunderground v.1.15,2013-02-28 21:55:00,
2013-02-28 17:00:00,34.4,27.3,29.91,NNW,327,5.0,7.0,75,0.00,,,0.02,Wunderground v.1.15,2013-02-28 22:00:00,
2013-02-28 17:10:00,34.1,27.3,29.92,West,265,4.0,4.0,76,0.00,,,0.02,Wunderground v.1.15,2013-02-28 22:10:00,
2013-02-28 17:15:00,34.0,27.2,29.92,NNW,333,3.0,4.0,76,0.00,,,0.02,Wunderground v.1.15,2013-02-28 22:15:00,
2013-02-28 17:20:00,33.9,27.1,29.92,NW,326,4.0,4.0,76,0.00,,,0.02,Wunderground v.1.15,2013-02-28 22:20:00,
2013-02-28 17:25:00,33.8,27.4,29.92,NW,309,4.0,4.0,77,0.00,,,0.02,Wunderground v.1.15,2013-02-28 22:25:00,
2013-02-28 17:35:00,33.5,27.1,29.93,WNW,285,4.0,5.0,77,0.00,,,0.02,Wunderground v.1.15,2013-02-28 22:35:00,
2013-02-28 17:40:00,33.4,27.3,29.94,NNW,331,4.0,4.0,78,0.00,,,0.02,Wunderground v.1.15,2013-02-28 22:40:00,
2013-02-28 17:45:00,33.2,27.1,29.94,WNW,301,4.0,4.0,78,0.00,,,0.02,Wunderground v.1.15,2013-02-28 22:45:00,
2013-02-28 17:55:00,33.0,27.2,29.95,NNW,338,4.0,5.0,79,0.00,,,0.02,Wunderground v.1.15,2013-02-28 22:55:00,
2013-02-28 18:00:00,32.9,27.1,29.95,North,355,4.0,4.0,79,0.00,,,0.02,Wunderground v.1.15,2013-02-28 23:00:00,
2013-02-28 18:10:00,32.7,27.2,29.95,NNW,327,4.0,4.0,80,0.00,,,0.02,Wunderground v.1.15,2013-02-28 23:10:00,
2013-02-28 18:15:00,32.7,27.5,29.96,NW,306,3.0,7.0,81,0.00,,,0.02,Wunderground v.1.15,2013-02-28 23:15:00,
2013-02-28 18:20:00,32.6,27.4,29.96,NW,323,4.0,6.0,81,0.00,,,0.02,Wunderground v.1.15,2013-02-28 23:20:00,
2013-02-28 18:25:00,32.5,27.3,29.96,NNE,15,4.0,6.0,81,0.00,,,0.02,Wunderground v.1.15,2013-02-28 23:25:00,
2013-02-28 18:30:00,32.5,27.3,29.96,WNW,297,3.0,3.0,81,0.00,,,0.02,Wunderground v.1.15,2013-02-28 23:30:00,
2013-02-28 18:40:00,32.5,27.6,29.96,NNW,344,4.0,4.0,82,0.00,,,0.02,Wunderground v.1.15,2013-02-28 23:40:00,
2013-02-28 18:45:00,32.4,27.5,29.96,NNE,26,4.0,4.0,82,0.00,,,0.02,Wunderground v.1.15,2013-02-28 23:45:00,
2013-02-28 18:50:00,32.4,27.5,29.96,WNW,290,3.0,5.0,82,0.00,,,0.02,Wunderground v.1.15,2013-02-28 23:50:00,
2013-02-28 18:55:00,32.4,27.5,29.96,NNW,338,2.0,5.0,82,0.00,,,0.02,Wunderground v.1.15,2013-02-28 23:55:00,
2013-02-28 19:00:00,32.3,27.4,29.96,NNW,335,3.0,3.0,82,0.00,,,0.02,Wunderground v.1.15,2013-03-01 00:00:00,
2013-02-28 19:10:00,32.3,27.4,29.97,WNW,298,4.0,5.0,82,0.00,,,0.02,Wunderground v.1.15,2013-03-01 00:10:00,
2013-02-28 19:15:00,32.3,27.4,29.97,NW,313,4.0,5.0,82,0.00,,,0.02,Wunderground v.1.15,2013-03-01 00:15:00,
2013-02-28 19:25:00,32.3,27.7,29.97,West,267,4.0,5.0,83,0.00,,,0.02,Wunderground v.1.15,2013-03-01 00:25:00,
2013-02-28 19:30:00,32.2,27.6,29.97,WNW,289,4.0,6.0,83,0.00,,,0.02,Wunderground v.1.15,2013-03-01 00:30:00,
2013-02-28 19:35:00,32.2,27.6,29.97,NNW,337,5.0,6.0,83,0.00,,,0.02,Wunderground v.1.15,2013-03-01 00:35:00,
2013-02-28 19:40:00,32.1,27.8,29.97,NW,311,5.0,7.0,84,0.00,,,0.02,Wunderground v.1.15,2013-03-01 00:40:00,
2013-02-28 19:45:00,32.1,27.5,29.97,NW,313,4.0,8.0,83,0.00,,,0.02,Wunderground v.1.15,2013-03-01 00:45:00,
2013-02-28 19:55:00,32.1,27.8,29.97,NW,317,5.0,5.0,84,0.00,,,0.02,Wunderground v.1.15,2013-03-01 00:55:00,
2013-02-28 20:00:00,32.1,27.8,29.97,NW,321,3.0,3.0,84,0.00,,,0.02,Wunderground v.1.15,2013-03-01 01:00:00,
2013-02-28 20:10:00,32.1,27.8,29.97,NW,319,3.0,3.0,84,0.00,,,0.02,Wunderground v.1.15,2013-03-01 01:10:00,
2013-02-28 20:15:00,32.1,27.8,29.97,NW,308,2.0,3.0,84,0.00,,,0.02,Wunderground v.1.15,2013-03-01 01:15:00,
2013-02-28 20:25:00,32.1,27.8,29.97,NW,310,2.0,3.0,84,0.00,,,0.02,Wunderground v.1.15,2013-03-01 01:25:00,
2013-02-28 20:30:00,32.1,27.8,29.97,NW,317,2.0,3.0,84,0.00,,,0.02,Wunderground v.1.15,2013-03-01 01:30:00,
2013-02-28 20:35:00,32.1,27.8,29.97,NW,312,3.0,5.0,84,0.00,,,0.02,Wunderground v.1.15,2013-03-01 01:35:00,
2013-02-28 20:40:00,32.1,28.1,29.97,WNW,302,3.0,4.0,85,0.00,,,0.02,Wunderground v.1.15,2013-03-01 01:40:00,
2013-02-28 20:50:00,32.0,27.7,29.97,WNW,290,4.0,5.0,84,0.00,,,0.02,Wunderground v.1.15,2013-03-01 01:50:00,
2013-02-28 20:55:00,32.0,28.0,29.97,WNW,301,4.0,5.0,85,0.00,,,0.02,Wunderground v.1.15,2013-03-01 01:55:00,
2013-02-28 21:00:00,32.0,27.7,29.97,WNW,294,4.0,8.0,84,0.00,,,0.02,Wunderground v.1.15,2013-03-01 02:00:00,
2013-02-28 21:10:00,32.0,28.0,29.98,NW,315,4.0,4.0,85,0.00,,,0.02,Wunderground v.1.15,2013-03-01 02:10:00,
2013-02-28 21:15:00,31.9,27.9,29.98,WNW,292,4.0,4.0,85,0.00,,,0.02,Wunderground v.1.15,2013-03-01 02:15:00,
2013-02-28 21:20:00,32.0,28.0,29.98,WNW,290,4.0,4.0,85,0.00,,,0.02,Wunderground v.1.15,2013-03-01 02:20:00,
2013-02-28 21:25:00,31.9,28.2,29.98,WNW,298,4.0,7.0,86,0.00,,,0.02,Wunderground v.1.15,2013-03-01 02:25:00,
2013-02-28 21:30:00,31.9,28.2,29.98,WNW,298,4.0,4.0,86,0.00,,,0.02,Wunderground v.1.15,2013-03-01 02:30:00,
2013-02-28 21:40:00,31.9,27.9,29.98,NNW,329,4.0,6.0,85,0.00,,,0.02,Wunderground v.1.15,2013-03-01 02:40:00,
2013-02-28 21:45:00,31.8,27.8,29.98,NW,317,5.0,6.0,85,0.00,,,0.02,Wunderground v.1.15,2013-03-01 02:45:00,
2013-02-28 21:55:00,31.7,28.0,29.98,NW,313,4.0,5.0,86,0.00,,,0.02,Wunderground v.1.15,2013-03-01 02:55:00,
2013-02-28 22:00:00,31.7,28.3,29.98,NW,317,3.0,7.0,87,0.00,,,0.02,Wunderground v.1.15,2013-03-01 03:00:00,
2013-02-28 22:05:00,31.6,28.2,29.98,NW,305,4.0,7.0,87,0.00,,,0.02,Wunderground v.1.15,2013-03-01 03:05:00,
2013-02-28 22:10:00,31.6,28.2,29.98,NNW,335,4.0,4.0,87,0.00,,,0.02,Wunderground v.1.15,2013-03-01 03:10:00,
2013-02-28 22:20:00,31.5,28.4,29.98,NW,322,3.0,8.0,88,0.00,,,0.02,Wunderground v.1.15,2013-03-01 03:20:00,
2013-02-28 22:25:00,31.4,28.3,29.99,NW,313,4.0,8.0,88,0.00,,,0.02,Wunderground v.1.15,2013-03-01 03:25:00,
2013-02-28 22:30:00,31.4,28.3,29.99,NW,307,4.0,6.0,88,0.00,,,0.02,Wunderground v.1.15,2013-03-01 03:30:00,
2013-02-28 22:40:00,31.3,28.4,29.99,WNW,294,4.0,5.0,89,0.00,,,0.02,Wunderground v.1.15,2013-03-01 03:40:00,
2013-02-28 22:45:00,31.2,28.3,29.99,NW,311,4.0,5.0,89,0.00,,,0.02,Wunderground v.1.15,2013-03-01 03:45:00,
2013-02-28 22:55:00,31.2,28.3,29.99,WNW,296,4.0,7.0,89,0.00,,,0.02,Wunderground v.1.15,2013-03-01 03:55:00,
2013-02-28 23:00:00,31.2,28.3,29.99,West,267,4.0,4.0,89,0.00,,,0.02,Wunderground v.1.15,2013-03-01 04:00:00,
2013-02-28 23:05:00,31.3,28.4,29.99,NW,317,3.0,4.0,89,0.00,,,0.02,Wunderground v.1.15,2013-03-01 04:05:00,
2013-02-28 23:10:00,31.2,28.3,29.98,NNW,329,3.0,3.0,89,0.00,,,0.02,Wunderground v.1.15,2013-03-01 04:10:00,
2013-02-28 23:15:00,31.2,28.3,29.99,WNW,291,3.0,3.0,89,0.00,,,0.02,Wunderground v.1.15,2013-03-01 04:15:00,
2013-02-28 23:25:00,31.2,28.3,29.99,WNW,303,2.0,4.0,89,0.00,,,0.02,Wunderground v.1.15,2013-03-01 04:25:00,
2013-02-28 23:30:00,31.2,28.6,29.99,NNW,327,2.0,2.0,90,0.00,,,0.02,Wunderground v.1.15,2013-03-01 04:30:00,
2013-02-28 23:40:00,31.2,28.6,29.98,West,278,2.0,2.0,90,0.00,,,0.02,Wunderground v.1.15,2013-03-01 04:40:00,
2013-02-28 23:45:00,31.2,28.6,29.98,NW,315,2.0,3.0,90,0.00,,,0.02,Wunderground v.1.15,2013-03-01 04:45:00,
2013-02-28 23:50:00,31.2,28.9,29.98,NW,315,1.0,1.0,91,0.00,,,0.02,Wunderground v.1.15,2013-03-01 04:50:00,
2013-02-28 23:55:00,31.2,28.9,29.98,WNW,302,1.0,2.0,91,0.00,,,0.02,Wunderground v.1.15,2013-03-01 04:55:00,